Date,TemperatureHighF,TemperatureAvgF,TemperatureLowF,DewpointHighF,DewpointAvgF,DewpointLowF,HumidityHigh,HumidityAvg,HumidityLow,PressureMaxIn,PressureMinIn,WindSpeedMaxMPH,WindSpeedAvgMPH,GustSpeedMaxMPH,PrecipitationSumIn
2013-2-1,46.6,41.6,35.4,45.1,40.9,35.2,99,97,88,29.85,29.45,3,1,14,0.35
2013-2-2,42.6,37.8,28.9,40.5,32.6,25.9,99,82,64,30.24,29.60,5,2,17,0.02
2013-2-3,49.5,40.8,28.6,49.2,39.5,26.5,99,95,88,30.24,29.91,6,2,20,0.00
2013-2-4,52.2,48.2,43.2,50.1,42.4,36.4,99,82,59,29.95,29.73,6,4,21,0.00
2013-2-5,44.1,40.3,35.1,40.5,34.2,27.4,99,81,56,29.71,29.34,7,4,29,0.07
2013-2-6,43.0,40.1,35.4,41.0,35.2,27.7,99,83,69,30.06,29.36,6,3,21,0.12
2013-2-7,43.0,35.5,30.4,32.9,29.2,26.3,92,78,64,30.10,30.02,3,2,12,0.00
2013-2-10,36.1,35.7,34.7,35.9,35.5,34.5,99,99,99,29.26,29.25,2,1,8,0.50
2013-2-11,35.4,34.0,32.9,35.2,33.8,32.7,99,99,99,29.75,29.26,2,1,8,0.28
2013-2-12,36.7,34.5,32.9,34.3,32.4,30.2,99,92,86,30.12,29.75,2,0,7,0.00
2013-2-13,40.1,35.3,32.4,39.8,32.6,28.1,99,90,73,30.19,29.96,3,1,17,0.02
2013-2-14,53.6,45.7,38.1,48.5,43.7,37.9,99,93,71,29.97,29.73,5,2,15,0.13
2013-2-15,50.5,40.4,32.7,44.0,37.5,32.5,99,90,62,30.19,29.98,2,0,8,0.00
2013-2-16,51.6,42.3,34.2,44.5,39.3,33.9,99,90,63,30.23,30.18,2,0,10,0.00
2013-2-17,50.7,38.4,28.8,42.5,35.0,28.5,99,89,57,30.19,30.07,5,1,14,0.00
2013-2-18,48.4,37.3,29.5,39.8,34.3,29.2,99,90,65,30.12,30.06,4,1,12,0.00
2013-2-19,50.4,34.9,25.7,42.2,32.2,25.5,99,91,61,30.11,30.03,1,0,4,0.00
2013-2-20,42.3,37.1,30.2,39.1,33.0,27.6,99,86,68,30.23,30.06,5,2,20,0.02
2013-2-21,37.0,34.3,30.7,27.7,23.4,20.5,77,65,55,30.23,30.13,5,3,21,0.00
2013-2-22,36.3,33.9,32.7,26.5,23.4,20.7,75,65,60,30.13,30.06,3,2,14,0.00
2013-2-23,35.6,33.3,32.2,29.2,27.1,25.7,81,78,74,30.11,30.05,2,2,10,0.00